Time,TemperatureF,DewpointF,PressureIn,WindDirection,WindDirectionDegrees,WindSpeedMPH,WindSpeedGustMPH,Humidity,HourlyPrecipIn,Conditions,Clouds,dailyrainin,SoftwareType,DateUTC
2013-03-27 00:03:00,32.0,27.0,-100.00,ENE,72,0.0,0.0,76,0.00,,,-99.99,,2013-03-27 04:03:00,
2013-03-27 00:13:00,32.0,27.0,-100.00,ENE,72,0.0,0.0,76,0.00,,,-99.99,,2013-03-27 04:13:00,
2013-03-27 00:23:00,33.0,27.0,-100.00,ENE,72,0.0,0.0,76,0.00,,,-99.99,,2013-03-27 04:23:00,
2013-03-27 00:33:00,33.0,27.0,-100.00,ENE,72,0.0,0.0,76,0.00,,,-99.99,,2013-03-27 04:33:00,
2013-03-27 00:43:00,32.0,27.0,-100.00,ENE,72,0.0,0.0,77,0.00,,,-99.99,,2013-03-27 04:43:00,
2013-03-27 00:52:00,32.0,28.0,-100.00,ENE,73,0.0,0.0,80,0.00,,,-99.99,,2013-03-27 04:52:00,
2013-03-27 01:03:00,32.0,28.0,-100.00,ENE,72,0.0,0.0,82,0.00,,,-99.99,,2013-03-27 05:03:00,
2013-03-27 01:13:00,32.0,28.0,-100.00,ENE,72,0.0,0.0,84,0.00,,,-99.99,,2013-03-27 05:13:00,
2013-03-27 01:23:00,32.0,28.0,-100.00,ENE,72,0.0,0.0,82,0.00,,,-99.99,,2013-03-27 05:23:00,
2013-03-27 01:33:00,30.0,27.0,-100.00,ENE,72,0.0,0.0,81,0.00,,,-99.99,,2013-03-27 05:33:00,
2013-03-27 01:42:00,30.0,27.0,-100.00,ENE,73,0.0,0.0,81,0.00,,,-99.99,,2013-03-27 05:42:00,
2013-03-27 01:52:00,29.0,25.0,-100.00,ENE,72,0.0,0.0,78,0.00,,,-99.99,,2013-03-27 05:52:00,
2013-03-27 02:02:00,30.0,25.0,-100.00,ENE,72,0.0,0.0,80,0.00,,,-99.99,,2013-03-27 06:02:00,
2013-03-27 02:12:00,29.0,25.0,-100.00,ENE,72,0.0,0.0,80,0.00,,,-99.99,,2013-03-27 06:12:00,
2013-03-27 02:22:00,29.0,25.0,-100.00,ENE,72,0.0,0.0,80,0.00,,,-99.99,,2013-03-27 06:22:00,
2013-03-27 02:32:00,29.0,25.0,-100.00,ENE,72,0.0,0.0,80,0.00,,,-99.99,,2013-03-27 06:32:00,
2013-03-27 02:42:00,29.0,25.0,-100.00,ENE,73,0.0,0.0,81,0.00,,,-99.99,,2013-03-27 06:42:00,
2013-03-27 02:52:00,29.0,25.0,-100.00,ENE,72,0.0,0.0,81,0.00,,,-99.99,,2013-03-27 06:52:00,
2013-03-27 03:02:00,29.0,25.0,-100.00,ENE,72,0.0,0.0,81,0.00,,,-99.99,,2013-03-27 07:02:00,
2013-03-27 03:12:00,31.0,27.0,-100.00,ENE,72,0.0,0.0,82,0.00,,,-99.99,,2013-03-27 07:12:00,
2013-03-27 03:22:00,31.0,27.0,-100.00,ENE,72,0.0,0.0,82,0.00,,,-99.99,,2013-03-27 07:22:00,
2013-03-27 03:32:00,29.0,25.0,-100.00,ENE,73,0.0,0.0,82,0.00,,,-99.99,,2013-03-27 07:32:00,
2013-03-27 03:42:00,31.0,28.0,-100.00,ENE,73,0.0,0.0,85,0.00,,,-99.99,,2013-03-27 07:42:00,
2013-03-27 03:53:00,28.0,25.0,-100.00,ENE,72,0.0,0.0,84,0.00,,,-99.99,,2013-03-27 07:53:00,
2013-03-27 04:02:00,28.0,25.0,-100.00,ENE,72,0.0,0.0,84,0.00,,,-99.99,,2013-03-27 08:02:00,
2013-03-27 04:13:00,29.0,27.0,-100.00,ENE,73,0.0,0.0,84,0.00,,,-99.99,,2013-03-27 08:13:00,
2013-03-27 04:22:00,29.0,27.0,-100.00,ENE,72,0.0,0.0,84,0.00,,,-99.99,,2013-03-27 08:22:00,
2013-03-27 04:32:00,29.0,27.0,-100.00,ENE,72,0.0,0.0,85,0.00,,,-99.99,,2013-03-27 08:32:00,
2013-03-27 04:43:00,29.0,27.0,-100.00,ENE,72,0.0,0.0,86,0.00,,,-99.99,,2013-03-27 08:43:00,
2013-03-27 04:52:00,28.0,25.0,-100.00,ENE,72,0.0,0.0,85,0.00,,,-99.99,,2013-03-27 08:52:00,
2013-03-27 05:02:00,29.0,25.0,-100.00,ENE,72,0.0,0.0,85,0.00,,,-99.99,,2013-03-27 09:02:00,
2013-03-27 05:12:00,28.0,25.0,-100.00,ENE,72,0.0,0.0,85,0.00,,,-99.99,,2013-03-27 09:12:00,
2013-03-27 05:22:00,28.0,25.0,-100.00,ENE,72,0.0,0.0,85,0.00,,,-99.99,,2013-03-27 09:22:00,
2013-03-27 05:33:00,28.0,25.0,-100.00,ENE,73,0.0,0.0,85,0.00,,,-99.99,,2013-03-27 09:33:00,
2013-03-27 05:42:00,29.0,25.0,-100.00,ENE,73,0.0,0.0,85,0.00,,,-99.99,,2013-03-27 09:42:00,
2013-03-27 05:52:00,28.0,25.0,-100.00,ENE,72,0.0,0.0,85,0.00,,,-99.99,,2013-03-27 09:52:00,
2013-03-27 06:03:00,29.0,25.0,-100.00,ENE,72,0.0,0.0,85,0.00,,,-99.99,,2013-03-27 10:03:00,
2013-03-27 06:13:00,29.0,25.0,-100.00,ENE,72,0.0,0.0,85,0.00,,,-99.99,,2013-03-27 10:13:00,
2013-03-27 06:23:00,31.0,28.0,-100.00,ENE,72,0.0,0.0,86,0.00,,,-99.99,,2013-03-27 10:23:00,
2013-03-27 06:32:00,29.0,25.0,-100.00,ENE,72,0.0,0.0,85,0.00,,,-99.99,,2013-03-27 10:32:00,
2013-03-27 06:42:00,31.0,28.0,-100.00,ENE,73,0.0,0.0,88,0.00,,,-99.99,,2013-03-27 10:42:00,
2013-03-27 06:52:00,30.0,28.0,-100.00,ENE,73,0.0,0.0,89,0.00,,,-99.99,,2013-03-27 10:52:00,
2013-03-27 07:03:00,31.0,28.0,-100.00,ENE,72,0.0,0.0,89,0.00,,,-99.99,,2013-03-27 11:03:00,
2013-03-27 07:12:00,31.0,28.0,-100.00,ENE,72,0.0,0.0,89,0.00,,,-99.99,,2013-03-27 11:12:00,
2013-03-27 07:22:00,31.0,28.0,-100.00,ENE,72,0.0,0.0,88,0.00,,,-99.99,,2013-03-27 11:22:00,
2013-03-27 07:32:00,29.0,27.0,-100.00,ENE,73,0.0,0.0,88,0.00,,,-99.99,,2013-03-27 11:32:00,
2013-03-27 07:42:00,29.0,27.0,-100.00,ENE,72,0.0,0.0,88,0.00,,,-99.99,,2013-03-27 11:42:00,
2013-03-27 07:52:00,29.0,27.0,-100.00,ENE,72,0.0,0.0,89,0.00,,,-99.99,,2013-03-27 11:52:00,
2013-03-27 08:02:00,29.0,27.0,-100.00,ENE,73,0.0,0.0,90,0.00,,,-99.99,,2013-03-27 12:02:00,
2013-03-27 08:12:00,28.0,27.0,-100.00,ENE,72,0.0,0.0,93,0.00,,,-99.99,,2013-03-27 12:12:00,
2013-03-27 08:23:00,28.0,28.0,-100.00,ENE,72,0.0,0.0,94,0.00,,,-99.99,,2013-03-27 12:23:00,
2013-03-27 08:32:00,28.0,27.0,-100.00,ENE,73,0.0,0.0,93,0.00,,,-99.99,,2013-03-27 12:32:00,
2013-03-27 08:43:00,28.0,28.0,-100.00,ENE,72,0.0,0.0,93,0.00,,,-99.99,,2013-03-27 12:43:00,
2013-03-27 08:52:00,31.0,30.0,-100.00,ENE,72,0.0,0.0,91,0.00,,,-99.99,,2013-03-27 12:52:00,
2013-03-27 09:02:00,29.0,27.0,-100.00,ENE,73,0.0,0.0,90,0.00,,,-99.99,,2013-03-27 13:02:00,
2013-03-27 09:12:00,29.0,27.0,-100.00,ENE,72,0.0,0.0,89,0.00,,,-99.99,,2013-03-27 13:12:00,
2013-03-27 09:23:00,31.0,28.0,-100.00,ENE,73,0.0,0.0,88,0.00,,,-99.99,,2013-03-27 13:23:00,
2013-03-27 09:32:00,30.0,27.0,-100.00,ENE,72,0.0,0.0,86,0.00,,,-99.99,,2013-03-27 13:32:00,
2013-03-27 09:42:00,30.0,27.0,-100.00,ENE,72,0.0,0.0,86,0.00,,,-99.99,,2013-03-27 13:42:00,
2013-03-27 09:52:00,30.0,27.0,-100.00,ENE,72,0.0,0.0,85,0.00,,,-99.99,,2013-03-27 13:52:00,
2013-03-27 10:02:00,30.0,27.0,-100.00,ENE,72,0.0,0.0,84,0.00,,,-99.99,,2013-03-27 14:02:00,
2013-03-27 10:12:00,30.0,27.0,-100.00,ENE,72,0.0,0.0,82,0.00,,,-99.99,,2013-03-27 14:12:00,
2013-03-27 10:22:00,31.0,27.0,-100.00,ENE,72,0.0,0.0,82,0.00,,,-99.99,,2013-03-27 14:22:00,
2013-03-27 10:32:00,31.0,27.0,-100.00,ENE,72,0.0,0.0,82,0.00,,,-99.99,,2013-03-27 14:32:00,
2013-03-27 10:42:00,31.0,27.0,-100.00,ENE,72,0.0,0.0,80,0.00,,,-99.99,,2013-03-27 14:42:00,
2013-03-27 10:52:00,32.0,27.0,-100.00,ENE,72,0.0,0.0,78,0.00,,,-99.99,,2013-03-27 14:52:00,
2013-03-27 11:03:00,32.0,27.0,-100.00,ENE,72,0.0,0.0,77,0.00,,,-99.99,,2013-03-27 15:03:00,
2013-03-27 11:12:00,32.0,27.0,-100.00,ENE,72,0.0,0.0,75,0.00,,,-99.99,,2013-03-27 15:12:00,
2013-03-27 11:23:00,33.0,27.0,-100.00,ENE,72,0.0,0.0,73,0.00,,,-99.99,,2013-03-27 15:23:00,
2013-03-27 11:33:00,33.0,27.0,-100.00,ENE,72,0.0,0.0,72,0.00,,,-99.99,,2013-03-27 15:33:00,
2013-03-27 11:43:00,33.0,25.0,-100.00,ENE,72,0.0,0.0,71,0.00,,,-99.99,,2013-03-27 15:43:00,
2013-03-27 11:52:00,33.0,27.0,-100.00,ENE,72,0.0,0.0,72,0.00,,,-99.99,,2013-03-27 15:52:00,
2013-03-27 12:03:00,34.0,25.0,-100.00,ENE,72,0.0,0.0,67,0.00,,,-99.99,,2013-03-27 16:03:00,
2013-03-27 12:13:00,34.0,27.0,-100.00,ENE,72,0.0,0.0,68,0.00,,,-99.99,,2013-03-27 16:13:00,
2013-03-27 12:23:00,35.0,23.0,-100.00,ENE,72,0.0,0.0,60,0.00,,,-99.99,,2013-03-27 16:23:00,
2013-03-27 12:33:00,36.0,27.0,-100.00,ENE,72,0.0,0.0,66,0.00,,,-99.99,,2013-03-27 16:33:00,
2013-03-27 12:42:00,36.0,27.0,-100.00,ENE,72,0.0,0.0,64,0.00,,,-99.99,,2013-03-27 16:42:00,
2013-03-27 12:52:00,36.0,25.0,-100.00,ENE,72,0.0,0.0,59,0.00,,,-99.99,,2013-03-27 16:52:00,
2013-03-27 13:03:00,36.0,23.0,-100.00,ENE,72,0.0,0.0,58,0.00,,,-99.99,,2013-03-27 17:03:00,
2013-03-27 13:12:00,38.0,25.0,-100.00,ENE,72,0.0,0.0,56,0.00,,,-99.99,,2013-03-27 17:12:00,
2013-03-27 13:22:00,38.0,21.0,-100.00,ENE,72,0.0,0.0,50,0.00,,,-99.99,,2013-03-27 17:22:00,
2013-03-27 13:32:00,37.0,23.0,-100.00,ENE,72,0.0,0.0,55,0.00,,,-99.99,,2013-03-27 17:32:00,
2013-03-27 13:44:00,37.0,23.0,-100.00,ENE,72,0.0,0.0,54,0.00,,,-99.99,,2013-03-27 17:44:00,
2013-03-27 13:52:00,36.0,21.0,-100.00,ENE,72,0.0,0.0,51,0.00,,,-99.99,,2013-03-27 17:52:00,
2013-03-27 14:02:00,37.0,21.0,-100.00,ENE,70,0.0,0.0,51,0.00,,,-99.99,,2013-03-27 18:02:00,
2013-03-27 14:12:00,36.0,23.0,-100.00,ENE,72,0.0,0.0,56,0.00,,,-99.99,,2013-03-27 18:12:00,
2013-03-27 14:23:00,38.0,23.0,-100.00,ENE,72,0.0,0.0,53,0.00,,,-99.99,,2013-03-27 18:23:00,
2013-03-27 14:32:00,37.0,23.0,-100.00,ENE,72,0.0,0.0,55,0.00,,,-99.99,,2013-03-27 18:32:00,
2013-03-27 14:42:00,38.0,25.0,-100.00,ENE,72,0.0,0.0,56,0.00,,,-99.99,,2013-03-27 18:42:00,
2013-03-27 14:53:00,38.0,23.0,-100.00,ENE,72,0.0,0.0,54,0.00,,,-99.99,,2013-03-27 18:53:00,
2013-03-27 15:03:00,38.0,25.0,-100.00,ENE,72,0.0,0.0,55,0.00,,,-99.99,,2013-03-27 19:03:00,
2013-03-27 15:12:00,39.0,25.0,-100.00,ENE,70,0.0,0.0,55,0.00,,,-99.99,,2013-03-27 19:12:00,
2013-03-27 15:22:00,39.0,25.0,-100.00,ENE,70,0.0,0.0,55,0.00,,,-99.99,,2013-03-27 19:22:00,
2013-03-27 15:32:00,39.0,25.0,-100.00,ENE,72,0.0,0.0,55,0.00,,,-99.99,,2013-03-27 19:32:00,
2013-03-27 15:42:00,38.0,21.0,-100.00,ENE,72,0.0,0.0,50,0.00,,,-99.99,,2013-03-27 19:42:00,
2013-03-27 15:52:00,37.0,21.0,-100.00,ENE,70,0.0,0.0,49,0.00,,,-99.99,,2013-03-27 19:52:00,
2013-03-27 16:03:00,37.0,21.0,-100.00,ENE,72,0.0,0.0,50,0.00,,,-99.99,,2013-03-27 20:03:00,
2013-03-27 16:12:00,37.0,21.0,-100.00,ENE,72,0.0,0.0,51,0.00,,,-99.99,,2013-03-27 20:12:00,
2013-03-27 16:22:00,37.0,21.0,-100.00,ENE,72,0.0,0.0,51,0.00,,,-99.99,,2013-03-27 20:22:00,
2013-03-27 16:32:00,39.0,23.0,-100.00,ENE,70,0.0,0.0,49,0.00,,,-99.99,,2013-03-27 20:32:00,
2013-03-27 16:43:00,38.0,21.0,-100.00,ENE,72,0.0,0.0,49,0.00,,,-99.99,,2013-03-27 20:43:00,
2013-03-27 16:52:00,38.0,21.0,-100.00,ENE,70,0.0,0.0,50,0.00,,,-99.99,,2013-03-27 20:52:00,
2013-03-27 17:02:00,38.0,21.0,-100.00,ENE,72,0.0,0.0,50,0.00,,,-99.99,,2013-03-27 21:02:00,
2013-03-27 17:12:00,38.0,23.0,-100.00,ENE,70,0.0,0.0,51,0.00,,,-99.99,,2013-03-27 21:12:00,
2013-03-27 17:23:00,38.0,23.0,-100.00,ENE,72,0.0,0.0,51,0.00,,,-99.99,,2013-03-27 21:23:00,
2013-03-27 17:32:00,37.0,21.0,-100.00,ENE,72,0.0,0.0,51,0.00,,,-99.99,,2013-03-27 21:32:00,
2013-03-27 17:43:00,37.0,21.0,-100.00,ENE,70,0.0,0.0,49,0.00,,,-99.99,,2013-03-27 21:43:00,
2013-03-27 17:52:00,37.0,21.0,-100.00,ENE,72,0.0,0.0,50,0.00,,,-99.99,,2013-03-27 21:52:00,
2013-03-27 18:03:00,38.0,21.0,-100.00,ENE,72,0.0,0.0,50,0.00,,,-99.99,,2013-03-27 22:03:00,
2013-03-27 18:12:00,38.0,21.0,-100.00,ENE,72,0.0,0.0,49,0.00,,,-99.99,,2013-03-27 22:12:00,
2013-03-27 18:23:00,38.0,21.0,-100.00,ENE,72,0.0,0.0,50,0.00,,,-99.99,,2013-03-27 22:23:00,
2013-03-27 18:33:00,37.0,21.0,-100.00,ENE,72,0.0,0.0,50,0.00,,,-99.99,,2013-03-27 22:33:00,
2013-03-27 18:42:00,38.0,21.0,-100.00,ENE,72,0.0,0.0,49,0.00,,,-99.99,,2013-03-27 22:42:00,
2013-03-27 18:52:00,37.0,19.0,-100.00,ENE,72,0.0,0.0,47,0.00,,,-99.99,,2013-03-27 22:52:00,
2013-03-27 19:02:00,35.0,19.0,-100.00,ENE,70,0.0,0.0,49,0.00,,,-99.99,,2013-03-27 23:02:00,
2013-03-27 19:12:00,37.0,21.0,-100.00,ENE,72,0.0,0.0,50,0.00,,,-99.99,,2013-03-27 23:12:00,
2013-03-27 19:22:00,37.0,19.0,-100.00,ENE,72,0.0,0.0,46,0.00,,,-99.99,,2013-03-27 23:22:00,
2013-03-27 19:32:00,37.0,19.0,-100.00,ENE,72,0.0,0.0,47,0.00,,,-99.99,,2013-03-27 23:32:00,
2013-03-27 19:42:00,37.0,19.0,-100.00,ENE,70,0.0,0.0,49,0.00,,,-99.99,,2013-03-27 23:42:00,
2013-03-27 19:52:00,37.0,19.0,-100.00,ENE,70,0.0,0.0,49,0.00,,,-99.99,,2013-03-27 23:52:00,
2013-03-27 20:02:00,38.0,19.0,-100.00,ENE,72,0.0,0.0,47,0.00,,,-99.99,,2013-03-28 00:02:00,
2013-03-27 20:12:00,39.0,23.0,-100.00,ENE,72,0.0,0.0,49,0.00,,,-99.99,,2013-03-28 00:12:00,
2013-03-27 20:22:00,38.0,21.0,-100.00,ENE,72,0.0,0.0,47,0.00,,,-99.99,,2013-03-28 00:22:00,
2013-03-27 20:33:00,38.0,21.0,-100.00,ENE,72,0.0,0.0,50,0.00,,,-99.99,,2013-03-28 00:33:00,
2013-03-27 20:52:00,38.0,23.0,-100.00,ENE,72,0.0,0.0,53,0.00,,,-99.99,,2013-03-28 00:52:00,
2013-03-27 21:02:00,38.0,23.0,-100.00,ENE,72,0.0,0.0,51,0.00,,,-99.99,,2013-03-28 01:02:00,
2013-03-27 21:12:00,39.0,25.0,-100.00,ENE,72,0.0,0.0,54,0.00,,,-99.99,,2013-03-28 01:12:00,
2013-03-27 21:22:00,38.0,25.0,-100.00,ENE,72,0.0,0.0,55,0.00,,,-99.99,,2013-03-28 01:22:00,
2013-03-27 21:32:00,38.0,23.0,-100.00,ENE,72,0.0,0.0,54,0.00,,,-99.99,,2013-03-28 01:32:00,
2013-03-27 21:42:00,37.0,23.0,-100.00,ENE,72,0.0,0.0,55,0.00,,,-99.99,,2013-03-28 01:42:00,
2013-03-27 21:52:00,37.0,23.0,-100.00,ENE,72,0.0,0.0,56,0.00,,,-99.99,,2013-03-28 01:52:00,
2013-03-27 22:03:00,37.0,23.0,-100.00,ENE,72,0.0,0.0,56,0.00,,,-99.99,,2013-03-28 02:03:00,
2013-03-27 22:12:00,38.0,25.0,-100.00,ENE,72,0.0,0.0,56,0.00,,,-99.99,,2013-03-28 02:12:00,
2013-03-27 22:22:00,37.0,25.0,-100.00,ENE,72,0.0,0.0,59,0.00,,,-99.99,,2013-03-28 02:22:00,
2013-03-27 22:32:00,37.0,23.0,-100.00,ENE,72,0.0,0.0,56,0.00,,,-99.99,,2013-03-28 02:32:00,
2013-03-27 22:42:00,37.0,23.0,-100.00,ENE,72,0.0,0.0,56,0.00,,,-99.99,,2013-03-28 02:42:00,
2013-03-27 22:52:00,37.0,23.0,-100.00,ENE,72,0.0,0.0,56,0.00,,,-99.99,,2013-03-28 02:52:00,
2013-03-27 23:02:00,37.0,25.0,-100.00,ENE,72,0.0,0.0,59,0.00,,,-99.99,,2013-03-28 03:02:00,
2013-03-27 23:12:00,37.0,25.0,-100.00,ENE,72,0.0,0.0,59,0.00,,,-99.99,,2013-03-28 03:12:00,
2013-03-27 23:22:00,36.0,25.0,-100.00,ENE,72,0.0,0.0,59,0.00,,,-99.99,,2013-03-28 03:22:00,
2013-03-27 23:33:00,37.0,25.0,-100.00,ENE,72,0.0,0.0,60,0.00,,,-99.99,,2013-03-28 03:33:00,
2013-03-27 23:43:00,37.0,25.0,-100.00,ENE,72,0.0,0.0,60,0.00,,,-99.99,,2013-03-28 03:43:00,
2013-03-27 23:52:00,37.0,25.0,-100.00,ENE,72,0.0,0.0,60,0.00,,,-99.99,,2013-03-28 03:52:00,